CAPE
0 0 0 0 0 0 0 0 0 0 0 0 0 0 0 0 0 0 0 0 0 0 0 0 0 0 0 0 0 0 0 0 0 0 0 0 80 4 14 14 0 0 4 23 49
0 0 0 0 0 0 0 0 0 0 0 0 0 0 0 0 0 0 0 0 0 0 0 0 0 0 0 0 0 0 0 0 0 0 0 0 5 10 15 16 1 0 30 62 21
0 0 0 0 0 0 0 0 0 0 0 0 0 0 0 0 0 0 0 0 0 0 0 0 0 0 0 0 0 0 0 0 0 0 0 0 0 11 8 1 0 0 71 72 65
0 0 0 0 0 0 0 0 0 0 0 0 0 0 0 0 0 0 0 0 0 0 0 0 0 0 0 0 0 0 0 0 0 0 0 0 0 0 2 8 0 0 88 81 94
0 0 0 0 0 0 0 0 0 0 0 0 0 0 0 0 0 0 0 0 0 0 0 0 0 0 0 0 0 0 0 0 0 0 0 0 0 0 1 3 0 0 71 135 179
0 0 0 0 0 0 0 0 0 0 0 0 0 0 0 0 0 0 0 0 0 0 0 0 0 0 0 0 0 0 0 0 0 0 0 0 0 0 0 0 3 0 10 195 186
0 0 0 0 0 0 0 0 0 0 0 0 0 0 0 0 0 0 0 0 0 0 0 0 0 0 0 0 0 0 0 0 0 0 0 0 0 0 0 0 17 0 0 119 237
0 0 0 0 0 0 0 0 0 0 0 0 0 0 0 0 0 0 0 0 0 0 0 0 0 0 0 0 0 0 0 0 0 0 0 0 0 0 0 0 15 20 0 1 152
0 0 0 0 0 0 0 0 0 0 0 0 0 0 0 0 0 0 0 0 0 0 0 0 0 0 0 0 0 0 0 0 0 0 0 0 0 0 0 0 1 16 63 0 30
0 0 0 0 0 0 0 0 0 0 0 0 0 0 0 0 0 0 0 0 0 0 0 0 0 0 0 0 0 0 0 0 0 0 0 0 0 0 0 0 0 8 215 452 259
0 0 0 0 0 0 0 0 0 0 0 0 0 0 0 0 0 0 0 0 0 0 0 0 0 0 0 0 0 0 0 0 0 0 0 0 0 0 0 0 0 0 34 603 804
0 0 0 0 0 0 0 0 0 0 0 0 0 0 0 0 0 0 0 0 0 0 0 0 0 0 0 0 0 0 0 0 0 0 0 0 0 0 0 0 0 0 0 217 803
0 0 0 0 0 0 0 0 0 0 0 0 0 0 0 0 0 0 0 0 0 0 0 0 0 0 0 0 0 0 0 0 0 0 0 0 0 0 0 0 0 0 143 101 300
0 0 0 0 0 0 0 0 0 0 0 0 0 0 0 0 0 0 0 0 0 0 0 0 0 0 0 0 0 0 0 0 0 0 0 0 0 0 0 0 0 0 394 435 608
0 0 0 0 0 0 0 0 0 0 0 0 0 0 0 0 0 0 0 0 0 0 0 0 0 0 0 0 0 0 0 0 0 0 0 0 0 0 0 0 0 0 46 705 999
0 0 0 0 0 0 0 0 0 0 0 0 0 0 0 0 0 0 0 0 0 0 0 0 0 0 0 0 0 0 0 0 0 0 0 0 0 0 0 0 0 0 0 397 1121
0 0 0 0 0 0 0 0 0 0 0 0 0 0 0 0 0 0 0 0 0 0 0 0 0 0 0 0 0 0 0 0 0 0 0 0 0 0 0 0 0 0 0 0 578
0 0 0 0 0 0 0 0 0 0 0 0 0 0 0 0 0 0 0 0 0 0 0 0 0 0 0 0 0 0 0 0 0 0 0 0 0 0 0 0 0 0 0 0 33
0 0 0 0 0 0 0 0 0 0 0 0 0 0 0 0 0 0 0 0 0 0 0 0 0 0 0 0 0 0 0 0 0 0 0 0 0 0 0 0 0 0 0 0 0
0 0 0 0 0 0 0 0 0 0 0 0 0 0 0 0 0 0 0 0 0 0 0 0 0 0 0 0 0 0 0 0 0 0 0 0 0 0 0 0 0 0 0 0 0
0 0 0 0 0 0 0 0 0 0 0 0 0 0 0 0 0 0 0 0 0 0 0 0 0 0 0 0 0 0 0 0 0 0 0 0 0 0 0 0 0 0 0 0 26
0 0 0 0 0 0 0 0 0 0 0 0 0 0 0 0 0 0 0 0 0 0 0 0 0 0 0 0 0 0 0 0 0 0 0 0 0 0 0 0 0 0 0 17 254
0 0 0 0 0 0 0 0 0 0 0 0 0 0 0 0 0 0 0 0 0 0 0 0 0 0 0 0 0 0 0 0 0 0 0 0 0 0 0 0 0 0 305 451 373
0 0 0 0 0 0 0 0 0 0 0 0 0 0 0 0 0 0 0 0 0 0 0 0 0 0 0 0 0 0 0 0 0 0 0 0 0 0 0 0 0 0 3 169 299
0 0 0 0 0 0 0 0 0 0 0 0 0 0 0 0 0 0 0 0 0 0 0 0 0 0 0 0 0 0 0 0 0 0 0 0 0 0 0 0 0 0 0 123 159
0 0 0 0 0 0 0 0 0 0 0 0 0 0 0 0 0 0 0 0 0 0 0 0 0 0 0 0 0 0 0 0 0 0 0 0 0 0 0 0 0 0 0 80 208
0 0 0 0 0 0 0 0 0 0 0 0 0 0 0 0 0 0 0 0 0 0 0 0 0 0 0 0 0 0 0 0 0 0 0 0 1 10 0 0 1 0 0 2 1
CIN
-0 -0 -0 -0 -0 -0 -0 -0 -0 -0 -0 -0 -0 -0 -0 -0 -0 -0 -0 -0 -0 -0 -0 -0 -0 -0 -0 -0 -0 -0 -0 -0 -0 -0 -0 -88 -109 -241 -343 -242 -0 -0 -217 -317 -637
-0 -0 -0 -0 -0 -0 -0 -0 -0 -0 -0 -0 -0 -0 -0 -0 -0 -0 -0 -0 -0 -0 -0 -0 -0 -0 -0 -0 -0 -0 -0 -0 -0 -0 -0 -0 -111 -136 -142 -190 -35 -0 -326 -435 -645
-0 -0 -0 -0 -0 -0 -0 -0 -0 -0 -0 -0 -0 -0 -0 -0 -0 -0 -0 -0 -0 -0 -0 -0 -0 -0 -0 -0 -0 -0 -0 -0 -0 -0 -0 -0 -21 -203 -133 -18 -4 -0 -265 -430 -520
-0 -0 -0 -0 -0 -0 -0 -0 -0 -0 -0 -0 -0 -0 -0 -0 -0 -0 -0 -0 -0 -0 -0 -0 -0 -0 -0 -0 -0 -0 -0 -0 -0 -0 -0 -0 -0 -0 -39 -111 -0 -0 -356 -420 -409
-0 -0 -0 -0 -0 -0 -0 -0 -0 -0 -0 -0 -0 -0 -0 -0 -0 -0 -0 -0 -0 -0 -0 -0 -0 -0 -0 -0 -0 -0 -0 -0 -0 -0 -0 -0 -0 -0 -20 -97 -0 -0 -346 -358 -348
-0 -0 -0 -0 -0 -0 -0 -0 -0 -0 -0 -0 -0 -0 -0 -0 -0 -0 -0 -0 -0 -0 -0 -0 -0 -0 -0 -0 -0 -0 -0 -0 -0 -0 -0 -0 -0 -0 -0 -0 -103 -0 -107 -332 -356
-0 -0 -0 -0 -0 -0 -0 -0 -0 -0 -0 -0 -0 -0 -0 -0 -0 -0 -0 -0 -0 -0 -0 -0 -0 -0 -0 -0 -0 -0 -0 -0 -0 -0 -0 -0 -0 -0 -0 -0 -122 -0 -0 -313 -322
-0 -0 -0 -0 -0 -0 -0 -0 -0 -0 -0 -0 -0 -0 -0 -0 -0 -0 -0 -0 -0 -0 -0 -0 -0 -0 -0 -0 -0 -0 -0 -0 -0 -0 -0 -0 -0 -0 -0 -0 -104 -124 -0 -129 -289
-0 -0 -0 -0 -0 -0 -0 -0 -0 -0 -0 -0 -0 -0 -0 -0 -0 -0 -0 -0 -0 -0 -0 -0 -0 -0 -0 -0 -0 -0 -0 -0 -0 -0 -0 -0 -0 -0 -0 -0 -19 -97 -159 -0 -205
-0 -0 -0 -0 -0 -0 -0 -0 -0 -0 -0 -0 -0 -0 -0 -0 -0 -0 -0 -0 -0 -0 -0 -0 -0 -0 -0 -0 -0 -0 -0 -0 -0 -0 -0 -0 -0 -0 -0 -0 -0 -102 -114 -130 -131
-0 -0 -0 -0 -0 -0 -0 -0 -0 -0 -0 -0 -0 -0 -0 -0 -0 -0 -0 -0 -0 -0 -0 -0 -0 -0 -0 -0 -0 -0 -0 -0 -0 -0 -0 -0 -0 -0 -0 -0 -0 -0 -33 -115 -154
-0 -0 -0 -0 -0 -0 -0 -0 -0 -0 -0 -0 -0 -0 -0 -0 -0 -0 -0 -0 -0 -0 -0 -0 -0 -0 -0 -0 -0 -0 -0 -0 -0 -0 -0 -0 -0 -0 -0 -0 -0 -0 -0 -144 -150
-0 -0 -0 -0 -0 -0 -0 -0 -0 -0 -0 -0 -0 -0 -0 -0 -0 -0 -0 -0 -0 -0 -0 -0 -0 -0 -0 -0 -0 -0 -0 -0 -0 -0 -0 -0 -0 -0 -0 -0 -0 -0 -328 -193 -156
-0 -0 -0 -0 -0 -0 -0 -0 -0 -0 -0 -0 -0 -0 -0 -0 -0 -0 -0 -0 -0 -0 -0 -0 -0 -0 -0 -0 -0 -0 -0 -0 -0 -0 -0 -0 -0 -0 -0 -0 -0 -0 -357 -288 -269
-0 -0 -0 -0 -0 -0 -0 -0 -0 -0 -0 -0 -0 -0 -0 -0 -0 -0 -0 -0 -0 -0 -0 -0 -0 -0 -0 -0 -0 -0 -0 -0 -0 -0 -0 -0 -0 -0 -0 -0 -0 -0 -287 -318 -357
-0 -0 -0 -0 -0 -0 -0 -0 -0 -0 -0 -0 -0 -0 -0 -0 -0 -0 -0 -0 -0 -0 -0 -0 -0 -0 -0 -0 -0 -0 -0 -0 -0 -0 -0 -0 -0 -0 -0 -0 -0 -0 -0 -301 -341
-0 -0 -0 -0 -0 -0 -0 -0 -0 -0 -0 -0 -0 -0 -0 -0 -0 -0 -0 -0 -0 -0 -0 -0 -0 -0 -0 -0 -0 -0 -0 -0 -0 -0 -0 -0 -0 -0 -0 -0 -0 -0 -0 -0 -313
-0 -0 -0 -0 -0 -0 -0 -0 -0 -0 -0 -0 -0 -0 -0 -0 -0 -0 -0 -0 -0 -0 -0 -0 -0 -0 -0 -0 -0 -0 -0 -0 -0 -0 -0 -0 -0 -0 -0 -0 -0 -0 -0 -0 -317
-0 -0 -0 -0 -0 -0 -0 -0 -0 -0 -0 -0 -0 -0 -0 -0 -0 -0 -0 -0 -0 -0 -0 -0 -0 -0 -0 -0 -0 -0 -0 -0 -0 -0 -0 -0 -0 -0 -0 -0 -0 -0 -0 -0 -0
-0 -0 -0 -0 -0 -0 -0 -0 -0 -0 -0 -0 -0 -0 -0 -0 -0 -0 -0 -0 -0 -0 -0 -0 -0 -0 -0 -0 -0 -0 -0 -0 -0 -0 -0 -0 -0 -0 -0 -0 -0 -0 -0 -0 -0
-0 -0 -0 -0 -0 -0 -0 -0 -0 -0 -0 -0 -0 -0 -0 -0 -0 -0 -0 -0 -0 -0 -0 -0 -0 -0 -0 -0 -0 -0 -0 -0 -0 -0 -0 -0 -0 -0 -0 -0 -0 -0 -0 -0 -365
-0 -0 -0 -0 -0 -0 -0 -0 -0 -0 -0 -0 -0 -0 -0 -0 -0 -0 -0 -0 -0 -0 -0 -0 -0 -0 -0 -0 -0 -0 -0 -0 -0 -0 -0 -0 -0 -0 -0 -0 -0 -0 -0 -275 -452
-0 -0 -0 -0 -0 -0 -0 -0 -0 -0 -0 -0 -0 -0 -0 -0 -0 -0 -0 -0 -0 -0 -0 -0 -0 -0 -0 -0 -0 -0 -0 -0 -0 -0 -0 -0 -0 -0 -0 -0 -0 -0 -261 -329 -440
-0 -0 -0 -0 -0 -0 -0 -0 -0 -0 -0 -0 -0 -0 -0 -0 -0 -0 -0 -0 -0 -0 -0 -0 -0 -0 -0 -0 -0 -0 -0 -0 -0 -0 -0 -0 -0 -0 -0 -0 -0 -0 -48 -220 -294
-0 -0 -0 -0 -0 -0 -0 -0 -0 -0 -0 -0 -0 -0 -0 -0 -0 -0 -0 -0 -0 -0 -0 -0 -0 -0 -0 -0 -0 -0 -0 -0 -0 -0 -0 -0 -0 -0 -0 -0 -0 -0 -0 -159 -224
-0 -0 -0 -0 -0 -0 -0 -0 -0 -0 -0 -0 -0 -0 -0 -0 -0 -0 -0 -0 -0 -0 -0 -0 -0 -0 -0 -0 -0 -0 -0 -0 -0 -0 -0 -0 -0 -0 -0 -0 -0 -0 -0 -127 -138
-0 -0 -0 -0 -0 -0 -0 -0 -0 -0 -0 -0 -0 -0 -0 -0 -0 -0 -0 -0 -0 -0 -0 -0 -0 -0 -0 -0 -0 -0 -0 -0 -0 -0 -1 -0 -0 -5 -0 -0 -0 -0 -0 -0 -0
Wind_Speed
23 23 23 23 23 23 23 23 23 23 23 23 23 22 23 23 24 20 23 2 11 3 8 19 16 17 16 15 14 13 12 13 12 12 14 13 2 8 10 11 12 12 14 0 20
24 24 24 24 24 23 23 23 22 22 22 22 22 21 21 22 23 24 23 13 5 7 3 9 14 16 16 15 14 12 10 10 11 12 16 12 5 6 9 8 8 8 10 18 21
25 24 24 24 24 23 23 22 22 21 21 21 21 20 20 20 21 16 16 8 7 7 10 9 12 17 17 17 13 11 10 10 14 15 16 13 8 7 8 15 11 16 17 19 18
25 24 24 24 23 23 22 22 21 20 20 20 19 19 19 18 16 15 21 12 8 3 7 9 13 12 11 13 16 14 13 11 13 13 16 18 10 6 9 6 6 8 14 17 15
25 24 23 23 23 23 22 21 20 19 19 19 17 17 17 19 20 19 18 10 6 4 4 9 8 9 8 12 10 10 10 11 15 16 19 15 18 9 17 2 10 6 12 19 14
25 24 23 23 23 22 21 19 18 17 17 17 16 15 16 21 17 18 11 9 7 6 8 9 8 7 10 10 8 11 11 18 16 16 13 2 16 3 13 4 2 4 12 22 19
25 24 24 23 22 21 20 18 17 17 16 15 14 16 18 24 15 16 11 13 9 9 10 11 9 11 13 14 14 12 23 27 14 14 19 11 18 4 9 9 2 5 12 22 20
25 24 24 22 21 19 17 16 16 16 15 13 13 17 20 18 20 15 11 14 13 12 11 12 9 17 15 16 17 17 19 24 20 19 16 11 19 7 6 17 6 4 12 16 17
25 24 23 22 20 16 14 15 15 14 14 12 15 16 19 19 19 14 9 14 10 10 10 11 15 16 16 17 20 19 20 22 24 23 22 19 24 20 16 14 7 6 10 15 18
24 23 22 20 17 13 13 14 14 14 14 16 18 18 18 14 16 13 10 11 12 12 13 14 14 15 16 17 20 20 20 21 21 20 23 28 35 37 32 21 9 14 10 12 14
23 22 20 18 14 13 13 14 19 17 16 17 18 19 23 21 15 14 12 10 15 15 15 16 17 19 20 20 20 22 23 25 23 28 29 34 37 41 40 25 15 12 14 14 13
23 21 19 17 13 13 15 17 19 20 24 25 25 26 22 17 18 14 8 10 13 16 17 20 24 24 20 20 22 24 28 31 28 24 21 34 43 43 27 23 14 14 16 16 13
22 21 19 17 14 13 15 19 20 21 19 19 16 16 14 6 11 13 7 11 14 13 17 19 19 16 18 22 25 26 28 31 33 30 29 32 34 34 27 27 28 19 18 16 17
23 21 19 15 13 14 16 21 24 14 16 19 17 17 13 9 13 12 8 11 15 17 17 21 24 25 24 25 22 29 25 29 32 29 31 24 36 36 30 27 24 17 15 15 17
24 22 17 10 15 16 22 27 17 15 15 21 18 16 13 12 17 19 12 14 12 13 13 16 17 20 21 22 17 26 25 28 29 34 32 30 31 31 25 25 23 15 13 16 18
25 19 14 13 15 19 27 23 14 15 16 18 17 21 15 18 19 22 17 18 18 22 24 26 22 20 22 24 20 26 30 30 30 30 39 31 30 33 32 25 26 20 12 16 20
22 15 15 16 20 26 23 15 16 16 21 20 22 22 16 19 20 18 17 19 23 28 28 32 30 28 28 34 25 24 29 34 34 33 38 30 34 33 29 31 27 24 19 15 18
17 14 16 20 24 22 17 15 17 19 18 22 23 19 17 21 20 22 19 22 27 25 29 32 34 25 26 24 30 25 24 30 38 40 45 30 40 36 29 33 31 31 28 22 19
13 15 20 24 24 18 15 17 18 20 23 23 21 20 20 21 21 19 21 24 27 29 30 34 33 33 31 32 26 26 27 26 36 37 43 41 44 42 33 35 36 34 30 26 20
13 15 23 27 22 17 16 16 17 21 20 18 19 22 23 26 24 23 23 26 27 31 28 30 43 32 35 35 26 29 29 35 32 42 48 43 42 39 33 33 34 33 30 26 24
15 16 27 25 18 18 16 16 18 23 17 20 19 20 21 25 24 24 26 25 29 34 28 32 32 39 38 30 35 37 32 31 34 35 46 52 46 32 35 40 43 41 36 34 27
16 18 28 21 18 17 16 16 17 22 21 19 20 21 22 27 24 23 25 25 29 33 33 31 35 45 45 41 32 27 28 29 35 40 37 40 45 29 32 36 39 41 38 27 20
15 19 26 17 16 14 15 16 18 21 23 21 22 24 23 26 26 23 28 25 32 33 34 33 34 50 45 29 25 30 31 33 35 33 42 46 45 34 38 39 37 36 33 23 16
15 18 22 21 16 14 15 20 17 23 24 22 22 23 24 27 28 26 33 29 35 33 31 32 35 39 49 47 46 52 51 43 40 47 48 52 60 53 46 44 43 40 36 29 20
17 17 17 19 21 19 18 19 21 22 22 27 25 27 27 30 31 29 31 33 32 30 31 34 41 42 46 49 48 51 52 51 50 49 52 65 57 55 51 46 44 41 40 32 26
15 14 17 18 19 20 21 22 22 22 24 26 26 27 26 28 28 32 31 31 32 33 34 30 38 44 52 44 44 51 48 48 48 52 55 60 65 49 45 43 42 41 39 35 30
20 17 17 21 20 21 22 22 25 19 23 25 27 27 26 26 27 28 28 28 30 31 31 31 37 43 47 43 46 45 38 39 44 46 47 55 53 45 47 45 45 39 37 36 35
Wind_Direction
296 294 292 290 289 288 284 284 282 281 279 274 277 285 288 286 288 306 222 122 321 350 325 281 285 281 283 282 276 283 289 299 313 333 329 332 27 332 359 2 37 12 85 110 95
300 297 294 289 286 286 284 284 282 282 281 277 284 289 293 297 298 244 221 313 351 9 347 304 283 276 274 276 271 276 286 310 318 334 324 348 47 353 346 9 74 43 72 102 108
304 298 293 289 285 286 286 285 286 287 289 287 290 293 297 304 299 305 306 7 125 320 318 316 292 272 269 268 266 272 276 301 308 309 318 333 48 1 26 170 139 134 119 122 122
304 298 293 289 285 285 287 290 291 297 297 296 299 297 301 308 308 312 289 337 105 33 327 312 286 285 283 269 263 267 276 294 308 313 314 296 5 28 127 113 62 107 129 131 130
304 299 295 290 288 286 289 291 295 303 300 300 305 307 309 299 288 303 321 18 40 15 356 314 306 296 294 284 271 257 277 292 298 302 299 319 190 152 186 86 0 104 134 152 146
305 301 296 291 289 287 290 297 304 312 311 311 312 314 310 291 302 304 338 12 347 334 312 312 311 313 309 296 284 271 282 288 291 295 312 6 310 43 181 351 118 131 152 167 166
306 302 299 295 293 292 294 301 307 312 318 324 320 310 306 275 308 312 326 314 326 317 310 299 311 304 301 293 292 282 274 273 286 290 292 319 293 188 178 330 253 178 166 173 174
307 304 301 298 297 302 313 319 318 318 324 338 331 314 300 302 295 304 315 314 310 305 301 296 311 293 295 295 293 288 279 272 276 285 293 290 291 204 285 303 244 245 183 180 178
306 303 302 299 300 314 330 332 331 336 334 340 326 319 301 301 298 300 315 310 314 310 302 310 301 293 295 291 288 292 281 274 275 279 282 286 288 297 306 297 226 224 200 196 190
305 304 303 303 309 347 354 353 5 351 335 323 315 317 297 319 313 306 299 312 307 304 302 300 302 296 295 290 283 287 287 284 274 280 284 284 280 274 284 293 246 221 227 216 201
303 299 298 304 339 27 24 356 326 328 327 322 312 304 282 295 315 312 301 299 297 303 295 299 293 289 288 291 291 292 291 287 285 280 289 282 282 274 279 289 272 231 231 228 215
300 296 294 310 353 36 348 338 334 325 301 287 276 280 288 304 305 312 331 302 296 292 297 294 288 290 295 293 293 291 289 283 286 286 290 285 279 276 291 288 270 252 237 228 240
295 292 295 319 360 356 352 334 330 313 322 315 339 332 320 343 322 312 330 311 307 298 295 292 299 313 301 295 290 288 288 284 281 287 291 289 288 286 291 293 294 284 259 243 223
293 289 304 348 8 2 338 330 302 4 330 327 338 348 357 355 331 321 327 315 308 303 296 297 296 292 294 293 293 287 293 288 283 288 286 295 288 283 288 296 300 288 256 239 251
297 299 333 36 357 350 322 302 339 343 325 314 349 6 357 342 329 333 329 312 308 310 315 308 307 305 303 303 301 293 298 292 287 286 287 284 288 285 293 291 299 296 254 249 257
309 333 7 5 345 336 299 315 352 332 321 325 347 332 341 325 318 320 322 329 322 303 298 296 304 306 306 304 302 300 296 295 291 287 278 280 282 285 281 289 295 296 278 263 260
322 7 21 0 323 290 308 342 331 326 319 318 316 322 344 331 337 340 338 333 313 302 300 297 295 296 298 293 301 300 297 290 285 280 279 286 281 282 288 285 288 292 292 276 261
341 35 9 349 304 314 339 340 326 323 323 322 324 333 332 331 335 335 327 319 329 318 304 301 296 310 313 303 295 296 291 285 284 282 281 288 278 284 288 283 287 286 290 288 276
1 355 339 311 312 346 345 331 329 325 321 317 322 323 323 326 328 330 330 321 324 323 309 302 295 297 302 305 302 296 289 295 286 287 285 282 282 284 287 286 284 284 284 283 277
353 349 332 308 319 352 344 339 337 334 337 339 325 326 319 319 320 321 319 325 319 323 321 309 295 302 298 304 304 297 296 286 286 283 280 282 284 284 290 290 289 286 286 283 281
342 338 319 309 344 344 336 339 343 336 349 340 337 331 332 324 324 320 317 320 325 321 324 314 303 295 304 303 301 297 295 292 288 282 281 281 283 294 290 287 283 282 285 284 283
338 329 316 326 335 346 344 341 349 339 347 346 344 339 330 328 324 322 319 321 329 325 316 317 306 297 296 300 304 297 296 296 285 282 285 284 281 303 305 303 298 288 285 287 282
342 339 329 345 341 354 3 5 2 346 342 338 335 336 334 327 321 323 322 323 325 322 318 317 307 299 299 306 310 298 297 297 294 289 279 278 276 299 303 303 306 300 293 292 288
342 330 346 3 9 11 357 342 343 344 346 350 341 340 333 328 328 320 320 322 323 322 323 317 305 300 294 295 296 290 286 291 288 280 279 275 279 282 293 298 299 298 294 286 288
350 350 355 342 359 8 3 351 345 338 347 342 335 335 332 325 326 322 324 323 325 326 323 318 304 302 299 296 294 291 288 285 282 279 276 274 277 281 287 292 295 296 292 283 280
3 9 12 10 5 0 349 348 348 346 342 339 337 334 335 330 329 324 326 325 321 325 322 323 310 309 302 303 298 292 291 288 284 281 278 277 275 285 285 288 290 293 294 282 275
14 17 9 354 354 355 355 354 349 351 352 350 339 337 336 336 333 329 327 324 322 323 322 322 319 313 304 311 306 296 298 296 292 289 284 277 280 285 282 284 286 287 291 286 280